Regional Weather Roundup
Issued by NWS State College, PA

Home | Current Version | Previous Version | Text Only | Print | Product List | Glossary On
Versions: 1 2 3 4 5 6 7 8 9 10 11 12 13 14 15 16 17 18 19 20 21 22 23 24 25 26 27 28 29 30 31 32 33 34 35 36 37 38 39 40 41 42 43 44 45 46 47 48 49 50
000
ASUS41 KCTP 291110
RWRCTP

REGIONAL WEATHER ROUNDUP
NATIONAL WEATHER SERVICE STATE COLLEGE PA
700 AM EDT SAT APR 29 2017

Note: "fair" indicates few or no clouds below 12,000 feet with no
significant weather and/or obstructions to visibility.

* = STATION THAT DOES NOT REPORT PRECIPITATION /E.G. RAIN...SNOW...ETC/
    THUNDER OR FOG.

PAZ002>004-007>009-013>016-020>023-029>032-291200-
WESTERN PENNSYLVANIA

CITY           SKY/WX    TMP DP  RH WIND       PRES   REMARKS
ERIE           CLOUDY    55  54  96 CALM      30.02R
MEADVILLE      CLOUDY    54  54 100 CALM      30.03R
FRANKLIN*      CLOUDY    52  48  87 CALM      30.05R
NEW CASTLE     PTSUNNY   55  54  96 CALM      30.03R
BEAVER COUNTY  NOT AVBL
BUTLER*        CLOUDY    55  54  94 S7        30.03R
PITTSBURGH INT CLOUDY    57  56  96 NE3       30.01R
PITTSBURGH     CLOUDY    58  54  86 CALM      30.01S
INDIANA*       MOCLDY    57  57 100 SW6       30.07R
LATROBE        TSTM      63  63 100 SW17G29   30.04R
WASHINGTON CO* CLOUDY    63  59  88 SW13      30.08R
$$

PAZ004>006-010>012-017>019-024>028-033>037-041-042-045-046-049>053-291200-
CENTRAL PENNSYLVANIA

CITY           SKY/WX    TMP DP  RH WIND       PRES   REMARKS
BRADFORD       CLOUDY    56  54  93 NW3       30.02R
DUBOIS         CLOUDY    57  53  86 SW8       30.02R
CLEARFIELD     FOG       53  53 100 CALM      30.04R VSB 1/2
JOHNSTOWN      TSTM      62  58  86 SW24G35   30.09R
ALTOONA        CLOUDY    56  54  93 W6        30.06R
STATE COLLEGE  CLEAR     52  52 100 CALM      30.02R
WILLIAMSPORT   NOT AVBL
SELINSGROVE    CLOUDY    57  56  96 CALM      30.01R FOG
FT INDIANTOWN  CLOUDY    63  63 100 SW3       30.00R FOG
CAPITAL CITY   CLOUDY    65  63  93 W5        30.01R FOG
HARRISBURG     CLOUDY    64  64 100 NW3       30.00R FOG
YORK           CLOUDY    65  65 100 W6        30.02R
$$

PAZ038>040-043-044-047-048-054-055-060>062-067>071-291200-
EASTERN PENNSYLVANIA

CITY           SKY/WX    TMP DP  RH WIND       PRES   REMARKS
SCRANTON       CLOUDY    57  56  96 E3        29.98S
MOUNT POCONO   CLOUDY    60  60 100 CALM      30.01S
ALLENTOWN      CLOUDY    60  56  86 N3        29.96F
QUAKERTOWN*    CLOUDY    63  63 100 CALM      29.97F VSB 1/2
READING        CLOUDY    62  62 100 N5        29.97R FOG
LANCASTER      FOG       64  64 100 CALM      29.98R VSB 1
COATESVILLE    FOG       64  64 100 CALM      29.99R VSB<1/4
POTTSTOWN      MOCLDY    63  63 100 CALM      29.98S FOG
BLUE BELL        N/A     63  63 100 CALM      29.98F VSB 1/4
DOYLESTOWN     CLOUDY    63  63 100 CALM      29.95F FOG
WILLOW GROVE   NOT AVBL
NORTH PHILA    CLOUDY    67  65  93 NE5       29.97F FOG
PHILADELPHIA   CLOUDY    68  66  93 CALM      29.96F FOG
$$



USA.gov is the U.S. government's official web portal to all federal, state and local government web resources and services.